Results for 2018 Whiskey Off Road
If you have a question regarding you results, please email Results
Distance Category
Search for Name or Plate #
PlacePlate #NameDurationCityStateCategorySponsorAgeEvent Pics
12453Thomas Fabian01:26:43  Fun Ride 13View
22499Chris Carothers01:28:11PrescottAZFun RideCarothers Structural Concrete, Inc.56View
32458Nathan Bigelow01:29:35  Fun Ride 15View
42237Preston Norbury01:30:20Chino ValleyAZFun Ride 14View
52342Sean Blackmer01:30:55Grand JunctionCOFun Ride 27View
62241Ellie Krafft01:31:19Prescott ValleyAZFun Ride 13View
72243Jonathan Krafft01:31:22Prescott ValleyAZFun Ride 46View
82475Dwight Robertson01:31:50  Fun Ride 54View
92441Nico Stallone01:32:05  Fun Ride 14View
102317Damiano Rivera De Rosales01:33:28  Fun Ride 8View
112290Luke Harris01:33:49PhoenixAZFun Ride 13View
122221Anthony Pierotti01:34:02VailAZFun Ride 45View
132508Michael Armstrong01:34:41MesaAZFun Ride 42View
142269Zane Simmons*01:36:48PrescottAZFun Ride 16View
152369Sander Biesen01:37:02  Fun Ride 10View
162482Scott Stedman01:37:23  Fun Ride 15View
172483Alex Stedman01:37:24TempeAZFun Ride 43View
182513Robert Ryan01:38:13Fountain HillsAZFun Ride 46View
192492Alex Cyr01:38:48  Fun Ride 16View
202299Matthew Kuhn01:38:54  Fun Ride 12View
212385Brent Kulseth01:40:03El MirageAZFun RideDCL 360 Coaching and Pro Team Racing37View
222418Jimmy Mcclelland01:40:12  Fun Ride 14View
232267Judd Simmons01:40:30PrescottAZFun Ride 49View
242401Dylan Skinner01:40:57  Fun Ride 14View
252391Andrew Pleva01:41:55  Fun Ride 15View
262360Bryce Clark01:43:03  Fun Ride 13View
272521Greg Mengarelli01:43:37PrescottAZFun Ride 51View
281490Scott Aguilar01:45:31DeweyAZFun Ride 16View
292302Ruben Tequida01:46:05TucsonAZFun Ride 57View
302256Tyler Prehn01:46:27PrescottAZFun Ride 29View
312457Dane Bigelow01:46:48  Fun Ride 13View
322485Todd Spaanstra01:47:27Oro ValleyAZFun Ride 46View
332231Joseph Ruwald*01:47:56Prescott ValleyAZFun Ride 17View
342230Paul Ruwald01:48:01Prescott ValleyAZFun Ride 45View
352496Oren Johnson01:48:01  Fun Ride 13View
362542John Xu01:48:03OttawaONFun Ride  View
372425Gary Stewart01:48:49PhelanCAFun RideESI Grips60View
381832Carlos Arboleda01:50:27PhoenixAZFun Ride 50View
392377Tony Baccellia01:50:29Prescott ValleyAZFun Ride 35View
402495Kevin Johnson01:50:31Camp VerdeAZFun Ride 40View
412250Keian Litchfield01:50:34Prescott ValleyAZFun Ride 14View
422242Patrick Fraher01:51:26Prescott ValleyAZFun Ride 48View
432414Susan Rea01:51:31  Fun Ride 50View
442340Ryan Goodell01:51:32  Fun Ride 39View
452392Brayden Baker01:52:46  Fun Ride 14View
462424Christopher Kolnik01:52:46PhoenixAZFun Ride 36View
472515Richard Baumann01:52:51TempeAZFun Ride 55View
482233Andrew Fraher01:52:56PrescottAZFun Ride 53View
492434Ryan Lively01:53:01PhoenixAZFun Ride 38View
502227Keith Dailey01:53:10PrescottAZFun Ride 49View
512465Scott Kirk01:54:16AvondaleAZFun Ride 35View
522276Craig Hacker01:54:21Prescott ValleyAZFun Ride 45View
532312Cody Thompson01:54:37PhoenixAZFun Ride 36View
542257Tanner Clagett01:54:56Salt Lake CityUTFun Ride 35View
552228Tom Tillery01:55:18PrescottAZFun Ride 54View
562346Ernesto Alvarez01:55:35  Fun Ride 51View
572382Rick Fee01:55:50  Fun Ride 45View
582356Luke Reynolds01:56:05  Fun Ride 26View
592386Jeremiah Frank01:56:12  Fun Ride 43View
602506Juan Lopez01:56:27KingmanAZFun Ride 20View
612498Kevin Phelan01:56:37  Fun Ride 12View
622481Spencer Gonzalez01:56:46  Fun Ride 30View
632532Sergio Soto01:56:49  Fun Ride 46View
642534Luke Raber01:57:24  Fun Ride 11View
652224David Haggart01:57:37PrescottAZFun Ride 57View
662229Sam Ward01:57:56PrescottAZFun Ride 18View
672397Jimmy Williams01:57:56AnaheimCAFun RideNone55View
682384Ally Thompson01:58:02  Fun Ride 29View
692316Greg Horner01:58:06SoldotnaAKFun Ride 59View
702535Jason Bigelow01:58:33PrescottAZFun Ride 46View
712375Jenna Howard01:58:42  Fun Ride 47View
722374Joe Howard01:58:43PrescottAZFun Ride 47View
732293Greg Marshall01:59:56KingmanAZFun Ride 42View
742488James Manalac02:00:36  Fun Ride 42View
752489Ricky Caramillo02:00:37  Fun Ride 36View
762387Rick Brown02:00:38GilbertAZFun Ride 63View
772373Christine Schinker02:00:45MesaAZFun Ride 45View
782406Dawn Hindes02:01:33TucsonAZFun Ride 43View
792263Megan Holdsworth02:01:44PrescottAZFun Ride 40View
802264Mclaren Holdsworth02:01:45PrescottAZFun Ride 11View
812361Dean Hinshaw02:01:54PrescottAZFun Ride 57View
822376Paul Gruber02:01:56  Fun Ride 46View
832259Nathen Hill02:01:57Chino ValleyAZFun Ride 11View
842258Justin Hill02:02:06Chino ValleyAZFun Ride 40View
852209Vicki Weisman02:02:15PeoriaAZFun Ride 10View
862201Benjamin Weisman02:02:16PeoriaAZFun Ride 46View
872491Jon Cyr02:02:27Prescott ValleyAZFun Ride 43View
882222David Burkhardt02:02:51San DiegoCAFun RideWest Coast IPAs48View
892419Mark Gaffney02:03:32ChandlerAZFun Ride 50View
902355Darrell Dupee02:04:01PrescottAZFun Ride 62View
912529Tyrel Fenwick02:04:03SedonaAZFun RideSUGAR LOAF LODGE SEDONA31View
922303Tyler Remlinger02:04:26PrescottAZFun Ride 12View
932474Shane Crawford02:04:52  Fun Ride 12View
942313Todd Breen02:05:10  Fun Ride 58View
952331Sherrie Thompson02:05:12PrescottAZFun Ride 56View
962236Preston Norbury02:05:52Chino ValleyAZFun Ride 42View
972240Matt Clagett02:06:03TempeAZFun Ride 44View
982390James Meyer02:06:11PhoenixAZFun Ride 43View
992478Steve Collins02:06:11PrescottAZFun Ride 66View
1002487Andrew Breen02:06:17  Fun Ride 35View
1012396Patrick Meyer02:06:24ScottsdaleAZFun Ride 38View
1022389Michael Schmidt02:06:40PhxAZFun Ride 40View
1032423Tom Dutton02:06:52FlagstaffAZFun Ride 40View
1042206Trevor Yoell02:06:56  Fun Ride 49View
1052268Sarah Beauprey02:07:01PrescottAZFun Ride 32View
1062298Jeff Waknitz02:07:13PeoriaAZFun Ride 43View
1072398Jacob Saxton02:08:36  Fun Ride 27View
1082399Stephen Pesnell02:08:39PeoriaAZFun RidePesnell Auto Works30View
1092528Ted Durham02:08:57PrescottAZFun Ride 53View
1102277Marty Amorin02:09:25PeoriaAZFun RideValidation Matters Inc56View
1112334Eric Tuvale02:09:32  Fun Ride 36View
1122426James Slaughter02:10:07ChandlerAZFun Ride 50View
1132527Michael Urwin02:10:14TempeAZFun Ride 45View
1142328Jeff Miller02:10:16  Fun Ride 30View
1152297Kevin Cruz02:10:18SurpriseAZFun Ride 36View
1162353Cory Higginbotham02:10:19TopekaKSFun Ride 46View
1172354Joseph Higginbotham02:10:19PhoenixAZFun Ride 38View
1182429Nick Vakula02:10:19  Fun Ride 13View
1192402Ira Brown02:10:30PrescottAZFun Ride 59View
1202357Bill Feldmeier02:10:33  Fun Ride 70View
1212271Nathan Vaca02:11:06Prescott ValleyAZFun Ride 16View
1222332Kathy Sleeth02:11:14  Fun Ride 33View
1232410Matthew Mckelvey02:11:18PrescottAZFun Ride 56View
1242461Michael Schubert02:11:18ScottsdaleAZFun Ride 38View
1252372Jennifer Siart02:11:39  Fun Ride 61View
1262281Paula Olson02:12:19PrescottAZFun Ride 48View
1272431Ashton Wolfswinkel02:12:28TempeAZFun Ride 38View
1282226Parker Rydell02:13:00Great FallsMTFun Ride 12View
1292517Blue Taylor02:13:14  Fun Ride 10View
1302484Angela Morgenstern02:13:15ValenciaCAFun Ride 44View
1312518Casey Franklin02:13:18PhoenixAZFun Ride 37View
1322204Chris Procyk02:13:41  Fun Ride 44View
1332393Kari Baker02:14:02  Fun Ride 47View
1342480Dean Thompson02:14:10PrescottAZFun Ride 40View
1352304Ben Blixt02:14:12  Fun Ride 41View
1362300Khaleel Salahudeen02:14:15  Fun Ride 49View
1372280David Browning02:14:32Laguna BeachCAFun Ride 53View
1382350Avery Wortendyke02:14:36  Fun Ride 12View
1392351Stephanie Wortendyke02:14:36  Fun Ride 43View
1402502Chris Junkins02:14:42Skull ValleyAZFun Ride 46View
1412477Jimmy Perlow02:14:43  Fun Ride 46View
1422503Tristen Junkins02:14:43Skull ValleyAZFun Ride 22View
1432217Greg Debusk02:15:32Sierra VistaAZFun Ride 44View
1442292Mary Powers02:15:35PrescottAZFun Ride 18View
1452286Don Futch02:15:37Queen CreekAZFun Ride 49View
1462212Michael Ferguson02:15:48TucsonAZFun Ride 37View
1472273Chris Rike02:16:21  Fun Ride 43View
1482270Rich Hoffecker02:16:22PhoenixAZFun RideRikeBike44View
1492324Tristin Hardin02:16:36PrescottAZFun Ride 22View
1502531Daniel Raber02:16:44  Fun Ride 11View
1512220Tom Harbour02:17:04PrescottAZFun Ride 60View
1522291Bret Wojciak02:17:04FlagstaffAZFun Ride 34View
1532294Benjamin Wojciak02:17:04PrescottAZFun RideSynergy Wellness Center37View
1542315Jason Niggemeyer02:17:08PhoenixAZFun Ride 37View
1552246Matt Crothers02:17:23PrescottAZFun Ride 12View
1562200Kevin Mcewen02:17:27WinterhavenCAFun Ride 31View
1572202Lee Faulk02:17:32PhoenixAZFun Ride 45View
1582295Barry Moore02:17:41KingmanAZFun Ride 57View
1592511Pete Cuison02:17:56  Fun Ride 44View
1602512Abigail Macdonald02:18:28  Fun Ride 16View
1612525Tate Coggins02:18:28PrescottAZFun Ride 15View
1622466Victor Ramirez02:19:02TempeAZFun Ride 42View
1632327Damian Sworan02:19:19  Fun Ride 23View
1642430Alex Vakula02:19:23PrescottAZFun Ride 36View
1652472Tom Timmer02:20:03  Fun Ride 58View
1662395George Sheppard02:20:07MesaAZFun Ride 37View
1672365Heather Diemert02:20:58Prescott ValleyAZFun RideMiracle Man Plumbing50View
1682278Ryan Rumby02:22:09PhoenixAZFun RideTina and Zachary45View
1692326Amy Sworan02:22:18  Fun Ride 57View
1702412Ellie Harvey02:22:48  Fun Ride 12View
1712272Nick Moceri02:22:59PrescottAZFun Ride 67View
1722352Chase Chappelle02:23:13  Fun Ride 31View
1732476Chase Mitchell02:23:52  Fun Ride 27View
1742405Steve Peebles02:23:55PhxAZFun Ride 55View
1752210Joe Cordell02:23:57YumaAZFun RideJohnny Yuma’s Bicycles31View
1762244Josh Crothers02:23:58PrescottAZFun RidePrescott Landscape47View
1772245Grace Crothers02:23:58PrescottAZFun Ride 15View
1782451Sean Flannery02:24:11AnaheimCAFun RideBottle Logic Brewing29View
1792541Sally Underwood02:25:10PrescottAZFun Ride 63View
1802261Landon Stribe02:25:20PrescottAZFun Ride 36View
1812274Dan Sarti02:25:20PrescottAZFun Ride 36View
1822314Greg Galpin02:25:29  Fun Ride 59View
1832366Loel Sanchez02:25:30  Fun Ride 54View
1842470Robert Atlas02:26:03  Fun Ride 51View
1852368Craig Satterlee02:26:12MesaAZFun Ride 41View
1862329Sally Andrews02:26:41Santa CruzCAFun Ride 56View
1872282Jake Rackham02:27:26SurpriseAZFun Ride 53View
1882343David Chenault02:27:31New RiverAZFun Ride 37View
1892362David Orr02:27:58SnowflakeAZFun RideGoDaddy34View
1902446Neal Lopez02:28:03Casa GrandeAZFun Ride 35View
1912249Kenneth Skinner02:28:16PrescottAZFun Ride 45View
1922473Jo Crawford02:28:21DeweyAZFun RideME!49View
1932218Dewee Debusk02:28:27Sierra VistaAZFun Ride 47View
1942239Brian Knowles02:28:27PrescottAZFun Ride 49View
1952215Gunar Schinzel02:29:00TempeAZFun Ride 47View
1962462Adam Boyd02:29:21ChandlerAZFun Ride 36View
1972400James Norton02:30:21  Fun Ride 55View
1982320Amanda Remlinger02:30:33PrescottAZFun Ride 42View
1992364Jared Ayers02:30:45PeoriaAZFun Ride 33View
2002467Cliff Moore02:31:18DeweyAZFun RideCheesy Javalina57View
2012411Neil Harvey02:31:38BluffdaleUTFun RideTOGS44View
2022415Ethan Harvey02:31:51  Fun Ride 11View
2032494Jeff Watson02:31:53  Fun Ride 64View
2042464Aaron Lattimore02:32:33  Fun Ride 45View
2052505Clara George02:32:50  Fun Ride 10View
2062504Zack George02:32:51Rio RanchoNMFun RideWife (Amanda) and Molly, Dex, and Levi!38View
2072325Jim Chabot02:33:13  Fun Ride 44View
2082455Matthew Handy02:34:23  Fun Ride 9View
2092456Jeff Handy02:34:25TucsonAZFun RideJeffs garage54View
2102404Ximena Florez02:34:34PrescottAZFun Ride 58View
2112536Brook Hammerschmidt02:34:39  Fun Ride 35View
2122539Ed Hammerschmidt02:34:40PrescottAZFun Ride 60View
2132234Mary Kay Naughton02:34:46PeoriaAZFun RidePosterhanger.com49View
2142417John Litteer02:36:42PrescottAZFun Ride 52View
2152540Scott West02:36:59FlagstaffAZFun Ride 58View
2162322Scott Cerreta02:38:01FlagstaffAZFun RideNone47View
2172367Teresa Trevino02:38:01TucsonAZFun RideHusband50View
2182526Benjamin Jaspers02:38:29PortlandORFun Ride 35View
2192448Gustavo Padilla02:38:30FallbrookCAFun Ride 28View
2202310Mulyati Hull02:39:02ChandlerAZFun Ride 45View
2212422Anthony Matley02:39:25ChandlerAZFun Ride 32View
2222330Anthony Cerreta02:39:30GlendaleAZFun Ride 36View
2232287Howard Law02:39:50Las VegasNVFun Ride 46View
2242523Candace Pearson02:40:16  Fun Ride 37View
2252522Ryan Pearson02:40:17Prescott ValleyAZFun RideAlpha Omega Water Hauling40View
2262306Hailey Redenbo02:40:30  Fun Ride 14View
2272323Dimitry Struve02:40:37  Fun Ride 61View
2282284Nathaniel Hartsfield02:41:31Casa GrandeAZFun Ride 15View
2292388Ana Mansilla02:41:34  Fun Ride 37View
2302445Jeremy Lawler02:43:57  Fun Ride 39View
2312251Dean Futrell02:44:57Prescott ValleyAZFun Ride 26View
2322235David Spellman02:45:58PrescottAZFun Ride 68View
2332205Shannon Yoell02:46:47  Fun Ride 45View
2342500Silvana Ayala Pelaez02:48:07TucsonAZFun Ride 32View
2352296Cesar Carrillo02:49:09  Fun Ride 32View
2362394Jake Rogers02:49:29RuidosoNMFun Ride 47View
2372301Colin Smith02:50:34SedonaAZFun RideLandess Smith & Associates68View
2382447Laura Whittemore02:51:07  Fun Ride 50View
2392345Sierra King02:51:59Prescott ValleyAZFun Ride 15View
2402403Antonio Guadarrama02:52:42El CajonCAFun Ride 34View
2412381Chris Isasi02:53:54  Fun Ride 24View
2422341Rachel Campbell02:53:59Prescott ValleyAZFun RideHi Country Rec-V-Center51View
2432530Ernesto Gamboa02:54:04  Fun Ride 49View
2442533Bobby Raber02:54:26PrescottAZFun Ride 43View
2452493Patty Meiner02:54:32PrescottAZFun Ride 49View
2462463Cody Carlisle02:58:39  Fun Ride 32View
2472307Beau Wilson03:00:07FlagstaffAZFun Ride 36View
2482288Aurelio Torrez03:01:09TucsonAZFun Ride 45View
2492289Rachel Romero03:01:09  Fun Ride 54View
2502537Mike Schaible03:01:28Chino ValleyAZFun Ride 40View
2512538Austin Schaible03:01:28  Fun Ride 15View
2522247Rebecca Garbade03:04:14Chino ValleyAZFun Ride 40View
2532248Matthew Holt03:04:37WestminsterCAFun Ride 58View
2542416Steve Lane03:04:37  Fun Ride 66View
2552409Glen Lane03:04:38OrangeCAFun Ride 63View
2562207Angelena Palmaioli03:04:49Queen CreekAZFun Ride 33View
2572486Ronnie Ducut03:09:42TollesonAZFun RidePalermos Pizza and Wings42View
2582524Roland Maddagan03:09:43  Fun Ride 54View
2592520Erman Jay Buan03:09:44  Fun Ride 44View
2602208Gene Argust03:10:12SurpriseAZFun Ride 53View
2612379Christina Lopez03:11:07  Fun Ride 29View
2622380Kasandra Stout03:11:08  Fun Ride 28View
2631600Ryan Rinaldo03:11:37Rancho CucamongaCAMen's Open 35View
2642509Fionel Manuel03:13:31El MirageAZFun Ride 39View
2652333Jason Meador03:15:19  Fun Ride 38View
2662213George Toro03:15:20PhoenixAZFun Ride 49View
2672443John Daniels03:15:21VailAZFun RideJennifer Daniels48View
2682444Jennifer Daniels03:15:21  Fun Ride 39View
2692349Ron Cleary03:15:47PrescottAZFun Ride 69View
2702370Kj Robinson03:17:47  Fun Ride 27View
2712348Dan Delk03:18:20New RiverAZFun Ride 67View
2722238John Allen03:19:00PrescottAZFun Ride 40View
2732266Allen Schleicher03:19:02PrescottAZFun Ride 60View
2742519Steven Edney03:19:41San Luis ObispoCAFun Ride 60View
2752427Shelby Thomas03:20:08Lake Havasu CityAZFun Ride 21View
2762428Jacob Miller03:20:10  Fun Ride 19View
2772223Frank Saldana03:25:22YumaAZFun Ride 50View
2782319Rick Frost03:25:49  Fun Ride 55View
2792363Dan Spacek03:29:22PeoriaAZFun RideNew Systems56View
2802335Christopher Vanderbeek03:36:17  Fun Ride 41View
2812358Michael Lewis03:38:04Prescott ValleyAZFun Ride 55View
2822468Eric Schrader03:50:36  Fun Ride 66View
2832490Danica Weston03:56:48TempeAZFun Ride 35View
2842479Mark Anderson04:17:43PresoottAZFun Ride 61View